Temperature
8 9 9 9 9 9 9 9 10 9 8 8 8 8 8 6 5 5 5 4 3 2 2 2 3 3 4 4 4 5 5 5 5 5 5 5 5 5 5 5 5 5 5 5
9 9 8 8 8 8 8 9 9 8 7 7 7 7 7 6 5 4 4 3 2 2 1 2 2 2 3 3 3 4 4 4 4 4 4 4 4 4 4 4 4 4 4 4
8 8 7 7 7 7 8 8 8 7 6 6 6 7 6 5 4 3 2 2 1 1 0 0 1 2 2 2 3 3 3 4 4 4 4 4 4 4 4 4 4 4 4 4
7 6 6 6 6 7 7 7 7 6 6 7 7 8 7 6 5 4 2 1 1 -0 -0 -0 -0 1 1 2 2 3 3 3 3 3 3 3 3 3 3 3 3 3 3 3
6 5 6 6 6 6 6 6 6 6 6 6 7 7 7 5 4 4 2 1 -0 -1 -1 -1 -1 -0 0 1 1 2 2 2 2 3 3 3 3 3 3 3 3 3 3 3
5 5 5 5 5 5 5 6 6 6 6 6 7 7 7 5 4 3 2 0 -1 -1 -2 -2 -2 -1 -0 0 1 1 1 1 2 2 2 2 2 2 2 2 2 2 2 2
5 5 5 4 5 5 5 6 7 7 6 7 6 6 6 3 2 2 1 -1 -2 -2 -3 -3 -2 -2 -1 -1 0 0 1 1 1 1 1 1 1 1 1 1 1 1 1 1
5 6 5 4 4 5 5 6 6 6 7 8 6 6 4 1 0 -1 -1 -2 -3 -3 -4 -4 -4 -3 -3 -2 -1 -1 -0 -0 0 0 1 1 1 1 1 1 1 1 1 1
5 5 4 3 4 4 4 5 5 5 5 5 6 4 2 1 -0 -1 -2 -3 -4 -4 -5 -5 -4 -4 -4 -3 -2 -2 -1 -1 -0 -0 -0 0 0 1 0 0 0 0 1 1
4 4 4 3 3 3 4 4 4 4 5 5 6 5 4 1 -1 -1 -2 -3 -4 -5 -5 -5 -5 -5 -4 -4 -3 -3 -2 -2 -1 -1 -1 -1 -0 -0 0 0 0 0 0 0
3 3 3 3 3 3 3 3 3 4 4 5 5 5 1 -0 -1 -2 -3 -4 -5 -6 -6 -6 -6 -5 -5 -4 -4 -3 -3 -3 -2 -2 -2 -1 -1 -1 -1 -0 -0 -0 -0 -0
2 3 3 3 2 1 2 2 2 3 3 3 4 3 -2 -2 -3 -3 -4 -5 -6 -6 -6 -6 -6 -6 -5 -5 -4 -4 -4 -4 -3 -3 -2 -2 -2 -1 -1 -1 -1 -1 -1 -1
2 2 3 3 2 1 1 0 0 1 2 2 3 2 -3 -3 -4 -5 -5 -6 -7 -7 -7 -7 -7 -6 -6 -5 -5 -5 -5 -4 -4 -4 -3 -3 -2 -2 -2 -2 -2 -2 -2 -2
1 1 2 3 3 2 0 -0 -1 0 1 2 1 1 -2 -3 -4 -5 -6 -7 -7 -7 -8 -8 -7 -7 -6 -6 -6 -6 -5 -5 -5 -4 -4 -4 -3 -3 -3 -2 -2 -2 -2 -2
1 1 0 0 1 0 -0 -1 -1 -1 -0 0 0 -1 -2 -4 -5 -6 -7 -7 -7 -8 -8 -8 -8 -8 -7 -7 -6 -6 -6 -6 -5 -5 -5 -4 -4 -4 -3 -3 -3 -3 -3 -3
-0 -0 -1 -1 -1 -1 -2 -1 -2 -2 -2 -2 -2 -2 -4 -5 -6 -7 -7 -8 -8 -8 -9 -9 -9 -8 -8 -8 -7 -7 -7 -6 -6 -6 -5 -5 -5 -4 -4 -4 -4 -4 -4 -3
-1 -1 -1 0 -2 -2 -1 -2 -3 -3 -3 -3 -3 -3 -5 -6 -6 -7 -8 -8 -9 -9 -9 -9 -9 -9 -9 -8 -8 -8 -7 -7 -7 -6 -6 -5 -5 -5 -5 -5 -5 -4 -4 -4
-3 -2 -2 -1 -1 -1 -1 -4 -4 -4 -5 -5 -5 -6 -6 -7 -8 -8 -9 -9 -9 -10 -10 -10 -10 -9 -9 -9 -8 -8 -8 -7 -7 -7 -7 -6 -6 -6 -6 -6 -5 -5 -5 -5
-3 -3 -2 -1 -1 -1 -2 -5 -5 -5 -5 -6 -6 -6 -7 -8 -8 -8 -9 -9 -10 -10 -10 -10 -10 -10 -9 -9 -9 -9 -8 -8 -8 -7 -7 -7 -7 -7 -6 -6 -6 -6 -6 -6
-5 -4 -2 -2 -1 -1 -2 -5 -7 -5 -4 -7 -7 -7 -8 -8 -6 -6 -9 -10 -10 -10 -10 -10 -10 -10 -10 -10 -9 -9 -9 -9 -8 -8 -8 -8 -8 -7 -7 -7 -7 -7 -7 -7
-4 -4 -3 -3 -2 -2 -5 -7 -6 -4 -4 -8 -8 -9 -9 -9 -8 -9 -10 -10 -11 -11 -11 -11 -10 -10 -10 -10 -10 -10 -10 -9 -9 -9 -9 -8 -8 -8 -8 -8 -7 -7 -7 -7
-4 -4 -4 -4 -3 -3 -8 -7 -6 -6 -8 -9 -9 -9 -10 -10 -10 -10 -11 -11 -11 -11 -11 -11 -11 -11 -11 -11 -11 -10 -10 -10 -10 -9 -9 -9 -9 -9 -8 -8 -8 -8 -8 -8
-6 -5 -4 -5 -4 -7 -9 -8 -9 -9 -9 -10 -10 -10 -10 -11 -11 -11 -11 -11 -12 -12 -12 -12 -12 -11 -11 -11 -11 -11 -11 -11 -10 -10 -10 -10 -9 -9 -9 -9 -9 -9 -9 -9
-7 -9 -7 -7 -7 -8 -9 -10 -9 -10 -10 -10 -11 -11 -11 -11 -11 -12 -12 -12 -12 -12 -12 -12 -12 -12 -12 -12 -12 -12 -11 -11 -11 -11 -11 -10 -10 -10 -10 -10 -10 -10 -10 -9
-7 -9 -8 -8 -8 -9 -10 -10 -10 -10 -10 -11 -11 -11 -11 -12 -12 -12 -12 -12 -12 -12 -13 -13 -13 -13 -12 -12 -12 -12 -12 -12 -12 -12 -11 -11 -11 -11 -11 -10 -10 -10 -10 -10
-10 -9 -8 -7 -8 -9 -9 -10 -10 -11 -11 -11 -11 -12 -12 -12 -12 -13 -13 -13 -13 -13 -13 -13 -13 -13 -13 -13 -13 -13 -13 -13 -12 -12 -12 -12 -12 -11 -11 -11 -11 -11 -11 -10
Wind_Speed
0 2 4 5 7 7 7 9 10 8 5 5 8 10 8 4 2 2 2 2 2 2 3 3 3 2 1 1 1 2 3 3 3 3 3 3 3 3 3 3 5 6 6 6
2 4 4 4 5 7 8 10 10 6 3 5 8 10 6 4 3 2 2 2 2 3 4 4 3 3 2 2 2 2 3 3 4 4 4 3 3 3 3 3 4 6 7 6
5 2 2 3 4 7 9 10 10 7 6 4 5 8 6 4 2 1 3 3 2 2 3 4 4 3 3 2 2 2 3 4 4 4 3 2 2 2 3 3 3 4 6 7
3 2 2 3 4 6 8 7 7 6 6 5 5 7 6 5 4 2 3 3 3 4 4 4 4 4 3 3 3 3 3 4 4 4 5 6 5 4 4 4 4 5 6 7
2 2 3 4 4 5 5 5 7 8 8 7 8 7 4 3 4 3 3 4 4 4 4 4 4 4 4 3 3 2 3 3 3 5 6 6 5 4 3 4 5 5 5 6
2 2 3 3 3 4 2 3 4 5 6 8 9 9 5 2 3 3 3 3 4 4 4 4 5 5 4 4 3 3 2 2 3 4 5 6 6 5 5 5 5 5 4 4
2 1 1 1 2 2 2 2 2 4 6 7 4 7 3 1 1 2 2 4 4 4 4 4 5 6 6 5 5 4 2 2 2 3 4 6 7 7 7 7 6 6 5 5
3 3 1 1 2 3 4 5 4 5 6 5 4 6 1 3 3 4 4 4 5 5 5 5 5 6 6 5 5 4 3 3 3 3 4 5 5 5 5 6 6 6 6 6
3 3 1 2 2 2 3 4 3 3 5 6 5 3 2 2 3 4 5 5 6 6 6 6 6 6 6 6 5 4 4 4 3 3 4 4 4 5 5 5 6 5 5 5
2 4 3 2 1 0 2 2 2 4 4 6 5 6 3 1 2 3 5 6 6 7 6 6 6 7 6 6 5 5 5 5 4 4 3 3 4 4 4 5 6 6 6 5
2 3 3 2 2 2 1 2 3 4 4 5 6 3 3 1 2 3 4 5 5 6 7 6 6 6 6 6 6 6 6 5 5 5 4 4 3 3 3 3 5 5 5 6
2 2 4 3 1 2 2 2 3 4 4 4 5 3 3 3 2 3 4 5 5 6 6 7 6 7 7 7 7 6 6 6 5 5 4 4 3 3 3 3 3 4 5 5
2 2 3 2 3 1 1 1 2 3 3 5 6 3 2 3 3 4 4 5 5 6 7 7 7 7 7 7 7 7 6 6 6 5 5 4 4 3 3 3 4 4 4 4
2 4 6 8 5 2 4 4 3 4 5 6 8 7 3 4 5 5 5 5 5 6 7 7 7 7 7 7 7 7 7 7 6 5 5 5 5 4 4 4 4 4 4 4
2 4 6 8 7 6 6 7 6 7 7 8 8 8 7 5 5 5 4 5 5 6 7 8 8 8 8 8 8 8 7 7 6 5 5 5 5 4 4 3 3 3 3 4
2 3 3 5 5 4 6 8 8 8 8 8 8 7 4 4 3 3 4 4 5 7 8 9 9 8 8 8 8 8 8 7 6 5 5 5 5 4 4 4 3 3 3 3
3 3 3 4 2 3 6 6 6 4 4 5 7 4 3 4 5 4 4 4 5 7 8 9 9 8 8 8 8 8 7 7 6 6 5 5 4 4 4 4 3 3 3 3
4 3 2 3 2 6 1 3 2 3 3 3 3 3 3 5 5 4 1 4 6 7 8 9 9 9 8 8 8 8 7 7 6 6 6 5 5 5 4 4 4 4 3 3
4 4 3 3 4 6 2 1 2 3 3 3 3 3 4 5 3 2 1 5 6 7 8 8 8 8 8 8 8 7 7 7 7 6 6 6 5 5 4 4 4 4 4 4
1 2 3 3 4 5 1 1 0 2 3 1 2 3 3 3 3 2 4 6 7 7 7 8 8 8 8 8 7 7 7 7 7 8 7 6 5 5 5 5 4 4 4 4
2 2 4 6 6 5 1 0 3 4 2 1 3 3 3 3 4 5 6 6 6 7 7 7 7 7 7 7 7 7 7 8 8 8 7 6 5 5 5 4 4 4 4 4
4 4 4 4 5 4 3 4 3 2 2 1 3 3 4 5 5 5 5 6 7 7 7 7 7 7 7 7 7 7 8 9 8 8 7 6 6 5 4 4 4 4 4 4
4 3 2 4 3 1 3 2 1 1 2 2 3 4 4 4 5 5 6 6 7 7 7 7 7 7 7 7 7 8 9 9 8 8 7 6 6 5 5 4 4 4 3 3
2 1 2 3 4 3 3 2 2 2 3 3 3 3 4 5 5 6 6 6 6 7 7 7 7 8 8 8 8 8 9 8 8 8 7 6 6 5 5 4 4 4 4 4
2 3 3 4 4 3 3 3 3 2 2 3 3 3 3 4 5 6 6 6 6 6 6 6 7 8 9 9 9 9 8 8 8 7 7 6 5 5 5 5 4 5 5 5
3 4 4 4 3 3 2 1 2 2 3 3 3 4 4 4 5 6 6 6 6 7 6 7 7 8 8 8 9 8 8 7 7 7 6 5 5 5 4 5 5 6 7 8
Wind_Direction
56 200 220 226 231 251 251 252 260 268 272 250 251 260 264 271 258 276 288 293 307 326 348 3 356 347 313 256 215 202 193 192 183 184 182 191 196 185 169 162 164 167 166 163
198 229 259 257 242 241 247 253 260 276 280 266 259 262 258 251 258 285 296 306 322 345 357 1 358 350 330 285 254 226 214 205 201 201 198 200 200 202 180 163 166 173 173 170
221 271 281 246 244 239 245 248 254 268 293 264 261 253 228 221 210 356 352 341 346 342 336 341 344 342 331 313 275 248 234 222 216 203 186 165 173 178 184 187 182 181 178 176
239 272 255 249 252 249 252 251 253 252 251 252 235 260 224 217 227 295 330 337 334 334 333 339 341 338 329 313 297 267 247 231 219 206 194 193 203 212 211 199 193 186 186 184
239 257 255 251 263 252 258 268 252 245 245 252 236 248 234 202 244 270 309 324 331 334 333 338 343 339 332 329 321 294 260 240 222 212 206 205 214 219 208 195 194 192 190 190
254 252 256 270 288 244 260 260 247 225 227 241 232 231 248 219 264 276 296 323 336 340 347 354 360 0 357 356 350 333 293 260 240 223 215 213 214 212 202 201 199 200 198 197
270 234 236 292 292 212 244 261 252 223 220 240 206 230 251 57 9 334 330 342 358 2 2 1 3 2 358 356 355 342 326 295 265 245 233 226 221 215 209 209 207 205 207 207
255 261 223 264 268 248 229 230 245 258 256 259 223 232 187 66 45 25 24 20 16 13 9 5 3 358 352 350 350 346 333 316 297 269 253 242 233 222 219 216 216 214 214 214
255 254 347 319 313 244 221 225 264 265 268 262 237 234 211 53 25 22 21 19 12 7 6 2 1 358 352 351 350 343 341 331 310 291 278 254 242 235 230 225 221 219 219 211
244 263 278 310 255 322 271 227 210 224 250 257 249 242 248 254 325 350 359 1 0 1 1 0 358 354 350 351 351 352 351 343 331 312 296 282 264 249 239 229 224 222 218 212
239 245 269 246 227 243 169 204 235 234 249 258 265 251 38 27 345 340 350 353 352 355 357 355 352 350 349 353 358 358 354 348 343 336 318 301 290 279 260 244 238 232 221 213
216 242 262 256 292 324 254 240 220 237 242 246 264 265 63 23 1 348 350 352 351 353 354 353 352 353 355 357 357 355 351 346 341 335 329 310 301 297 279 266 263 249 232 218
184 211 269 249 200 179 224 260 253 243 242 239 250 251 89 14 359 351 346 347 350 354 354 354 354 356 353 352 351 349 347 343 341 339 335 328 315 303 292 285 274 261 243 230
214 227 242 260 283 258 252 256 244 230 240 249 250 264 278 324 327 332 340 344 349 352 352 353 351 350 348 345 345 343 341 342 340 337 334 328 323 312 297 290 285 270 254 238
215 242 249 266 274 263 259 260 246 236 248 254 266 270 290 310 310 318 331 341 347 349 350 348 345 342 342 340 340 339 338 339 338 333 330 326 322 319 316 308 295 284 265 253
211 230 243 261 258 252 266 268 253 251 254 254 267 274 318 323 326 326 335 340 342 341 341 340 339 337 336 336 334 332 334 333 332 326 324 323 321 321 319 313 303 297 283 268
207 198 232 256 270 277 264 255 228 228 237 236 252 279 327 317 318 314 315 331 332 333 332 332 331 329 327 328 327 325 327 329 328 324 324 323 318 317 314 312 311 307 299 285
205 200 223 261 252 244 236 69 165 205 240 235 260 295 298 305 304 294 303 338 333 331 328 327 327 326 326 326 326 326 328 329 328 325 324 319 317 313 313 313 309 307 300 290
224 199 206 227 249 263 234 185 192 219 256 227 250 288 316 329 298 248 344 340 325 321 319 319 321 321 323 327 329 328 328 329 327 323 319 315 309 306 308 306 303 302 298 296
93 199 211 217 241 253 238 100 343 193 247 194 262 285 315 333 283 298 337 325 320 322 322 322 324 325 326 329 330 325 325 326 324 320 313 308 303 297 295 295 298 298 297 293
168 187 215 227 239 259 14 142 174 213 298 337 266 266 265 264 292 312 313 313 316 320 322 324 324 322 323 326 326 321 321 320 317 315 309 304 302 297 291 292 295 296 295 293
196 192 202 207 223 246 126 145 196 289 352 290 276 273 271 285 306 310 311 314 318 321 323 324 321 320 322 326 323 319 319 318 317 314 307 304 304 303 298 293 292 290 289 287
217 223 217 210 228 55 155 195 306 332 282 286 282 283 279 286 297 308 311 312 313 315 318 320 317 316 320 324 322 315 317 319 317 314 308 305 305 303 298 292 288 287 282 279
220 246 222 245 253 250 247 255 276 283 281 293 292 285 277 283 293 300 304 306 308 310 312 315 314 314 317 323 322 316 316 317 314 311 308 305 303 301 299 294 287 281 278 275
242 186 217 247 270 284 252 240 267 290 302 306 306 295 283 286 292 296 298 301 303 305 309 310 309 308 312 318 319 319 319 318 312 309 306 303 299 297 297 291 284 282 277 272
215 211 219 250 244 238 269 283 286 272 283 287 294 297 295 286 289 294 294 297 299 301 305 306 306 306 309 313 315 317 318 315 311 307 306 303 299 296 294 295 295 284 278 286
Height
1487 1486 1484 1485 1487 1486 1485 1484 1483 1484 1488 1488 1486 1486 1488 1491 1491 1491 1491 1491 1491 1491 1491 1490 1489 1489 1489 1490 1491 1492 1494 1496 1498 1499 1500 1502 1503 1505 1506 1508 1509 1511 1513 1514
1485 1485 1487 1488 1488 1488 1486 1484 1483 1486 1489 1488 1485 1484 1486 1488 1490 1490 1490 1490 1490 1489 1488 1487 1487 1486 1487 1487 1488 1489 1490 1492 1494 1496 1497 1499 1500 1502 1503 1505 1506 1507 1509 1511
1483 1487 1489 1489 1488 1487 1484 1483 1483 1486 1489 1488 1486 1480 1482 1486 1488 1489 1490 1489 1489 1488 1487 1486 1485 1484 1484 1484 1485 1486 1487 1489 1490 1492 1494 1495 1497 1498 1500 1501 1502 1504 1505 1507
1486 1488 1489 1488 1487 1486 1483 1484 1485 1487 1486 1480 1482 1471 1474 1481 1484 1486 1488 1488 1488 1487 1486 1485 1483 1482 1482 1482 1483 1483 1484 1486 1487 1488 1490 1491 1492 1493 1495 1497 1498 1500 1501 1503
1486 1488 1488 1486 1486 1487 1484 1486 1485 1484 1482 1481 1478 1475 1468 1479 1480 1484 1487 1487 1487 1486 1485 1483 1482 1481 1480 1480 1480 1480 1481 1482 1483 1485 1486 1487 1488 1490 1491 1493 1494 1496 1497 1499
1488 1489 1489 1487 1487 1487 1487 1485 1483 1483 1480 1477 1469 1470 1462 1476 1479 1482 1485 1486 1485 1485 1483 1482 1481 1480 1479 1478 1478 1477 1478 1478 1479 1481 1482 1483 1484 1485 1487 1488 1489 1491 1492 1494
1486 1487 1488 1489 1486 1486 1485 1482 1475 1472 1471 1463 1469 1469 1469 1479 1483 1484 1484 1485 1484 1484 1482 1481 1479 1477 1476 1475 1475 1475 1475 1475 1476 1477 1478 1479 1480 1481 1482 1484 1485 1486 1487 1489
1484 1482 1486 1487 1486 1485 1483 1481 1477 1472 1461 1457 1469 1467 1475 1484 1486 1486 1486 1485 1484 1483 1482 1480 1478 1477 1475 1474 1473 1472 1472 1472 1472 1473 1474 1475 1476 1477 1478 1480 1481 1482 1483 1484
1485 1483 1488 1488 1488 1486 1483 1481 1482 1479 1474 1470 1463 1471 1479 1485 1486 1486 1486 1485 1484 1483 1482 1480 1478 1476 1474 1473 1471 1471 1470 1470 1470 1470 1470 1471 1472 1473 1474 1475 1476 1477 1478 1479
1490 1488 1487 1488 1488 1487 1486 1483 1483 1479 1474 1463 1459 1464 1467 1480 1484 1486 1486 1485 1484 1483 1481 1479 1477 1475 1473 1472 1470 1469 1468 1467 1467 1467 1467 1467 1468 1469 1469 1470 1471 1472 1473 1474
1492 1490 1487 1487 1485 1483 1486 1486 1482 1477 1475 1468 1460 1463 1481 1483 1485 1486 1486 1486 1485 1483 1481 1479 1477 1474 1473 1470 1469 1467 1466 1465 1464 1464 1463 1464 1464 1464 1465 1466 1466 1467 1468 1469
1492 1490 1486 1485 1488 1489 1486 1485 1484 1480 1477 1475 1466 1473 1487 1487 1487 1487 1487 1486 1485 1483 1481 1478 1476 1473 1471 1469 1467 1466 1465 1463 1462 1461 1460 1460 1460 1461 1461 1461 1462 1462 1463 1463
1492 1491 1484 1478 1486 1490 1489 1489 1488 1484 1480 1475 1470 1475 1488 1488 1488 1488 1487 1485 1484 1482 1479 1477 1475 1472 1470 1468 1467 1465 1463 1462 1460 1459 1458 1457 1457 1457 1457 1457 1457 1458 1458 1458
1491 1489 1485 1476 1474 1482 1486 1489 1488 1485 1478 1473 1473 1474 1484 1486 1487 1487 1486 1485 1483 1481 1479 1477 1474 1472 1469 1468 1466 1464 1462 1460 1458 1456 1455 1454 1454 1454 1453 1453 1453 1453 1453 1454
1489 1487 1487 1484 1484 1485 1485 1486 1487 1486 1481 1477 1475 1478 1481 1485 1486 1486 1485 1484 1482 1480 1478 1476 1473 1471 1469 1466 1464 1462 1460 1457 1455 1454 1453 1452 1451 1450 1450 1450 1449 1449 1449 1450
1489 1488 1488 1486 1485 1485 1486 1484 1484 1485 1484 1483 1482 1482 1485 1486 1486 1485 1484 1483 1481 1480 1477 1475 1472 1470 1467 1465 1462 1460 1457 1455 1453 1451 1450 1449 1448 1448 1447 1446 1446 1446 1445 1445
1488 1488 1486 1479 1485 1485 1479 1481 1483 1484 1484 1484 1481 1482 1485 1484 1484 1484 1483 1482 1480 1478 1476 1474 1471 1469 1466 1463 1461 1458 1455 1453 1451 1449 1448 1446 1445 1444 1444 1443 1442 1442 1441 1441
1489 1487 1485 1482 1484 1479 1478 1485 1484 1484 1485 1486 1485 1485 1485 1484 1483 1482 1482 1481 1479 1477 1475 1472 1469 1467 1464 1461 1459 1456 1453 1451 1449 1447 1445 1444 1443 1442 1441 1440 1439 1438 1438 1438
1487 1486 1484 1481 1476 1472 1480 1484 1486 1485 1483 1485 1485 1485 1484 1483 1481 1480 1480 1479 1478 1476 1473 1471 1468 1465 1462 1459 1456 1453 1451 1448 1446 1444 1442 1441 1440 1439 1438 1437 1436 1435 1435 1434
1488 1487 1484 1481 1475 1469 1474 1484 1485 1486 1480 1483 1483 1483 1483 1482 1478 1478 1478 1477 1475 1473 1471 1468 1465 1462 1459 1457 1454 1451 1448 1446 1443 1442 1440 1438 1437 1436 1435 1434 1433 1432 1432 1431
1487 1487 1484 1480 1476 1472 1482 1485 1485 1481 1476 1482 1482 1482 1482 1481 1480 1479 1476 1475 1473 1471 1468 1466 1463 1460 1457 1455 1452 1449 1446 1443 1441 1439 1437 1435 1434 1433 1432 1431 1430 1429 1429 1428
1482 1481 1484 1481 1476 1475 1484 1484 1483 1480 1481 1480 1480 1480 1480 1479 1477 1476 1474 1472 1470 1468 1465 1463 1460 1457 1455 1452 1449 1446 1443 1441 1438 1436 1434 1432 1431 1430 1429 1427 1426 1426 1425 1424
1485 1483 1479 1480 1479 1481 1481 1481 1481 1480 1480 1479 1479 1478 1477 1476 1475 1473 1471 1470 1467 1465 1463 1460 1458 1455 1452 1450 1447 1443 1441 1438 1435 1433 1431 1429 1428 1427 1425 1424 1423 1422 1422 1421
1485 1486 1484 1483 1479 1480 1480 1479 1479 1479 1478 1477 1477 1476 1475 1474 1472 1471 1469 1467 1465 1462 1460 1457 1455 1452 1449 1446 1443 1441 1438 1435 1433 1430 1428 1426 1425 1423 1422 1421 1420 1419 1418 1417
1482 1484 1482 1481 1479 1479 1477 1477 1477 1477 1476 1475 1474 1473 1472 1471 1470 1468 1466 1464 1462 1460 1457 1455 1452 1449 1446 1443 1441 1438 1435 1432 1430 1427 1425 1424 1422 1420 1419 1418 1417 1416 1415 1414
1482 1481 1479 1475 1476 1477 1476 1475 1475 1474 1474 1473 1472 1470 1470 1469 1467 1465 1463 1461 1459 1457 1454 1452 1449 1446 1443 1440 1437 1435 1432 1430 1427 1424 1422 1421 1419 1417 1416 1414 1413 1412 1412 1410